Torna al catalogo

STARLINK-36835

AttivoComunicazioniVLEO
NORAD 67863·PAYLOAD·🇺🇸 United States

Lanciato Feb 20, 2026 da Vandenberg Space Force Base

Loading…

Prossimi Passaggi (prossime 24 ore)

TLE

AggiornatoSource: CelesTrak SupGP

Epoca: Sep 15, 2026, 04:00 UTC

1 67863C 26034P   26258.16715278  .00018416  00000+0  54429-3 0  2589
2 67863  53.1593  42.8487 0001270  92.6678 272.7934 15.34370908    14

Traccia STARLINK-36835 in tempo reale con AllMySat

Download on the App Store